Location: Arrodets-la-Barthe
(43.0306°N, 0.2829°E)
Time: 02:23:25
(UTC+00:00)

Cosmos 2344 - Pass Details

Date: 30 May 2022
Orbit: 1228 x 3015 km, 63.3° (Epoch: 03 July)

Event Time Altitude Azimuth Distance (km) Brightness Sun altitude
Rises 19:44:16 0° 207° (SSW) 4,427 6.3 -3.1°
Reaches altitude 10° 19:47:14 10° 205° (SSW) 3,334 5.7 -3.5°
Maximum altitude 19:54:49 73° 122° (ESE) 1,278 3.5 -4.6°
Drops below altitude 10° 20:02:18 10° 39° (NE) 3,294 5.8 -5.7°
Sets 20:05:13 0° 38° (NE) 4,372 6.4 -6.2°
